This demonstration page uses our WeatherBlox Daily Observations layout. Learn more.

Left ArrowRight Arrow

39.92423, -83.80882

Hourly Observations for May 19, 2022

Temp ( °F °C ) Dew Point ( °F °C ) Humidity (%) Winds ( mph kmh ) Pressure ( in mb ) Visibility ( mi km ) Precip ( " mm )
12:56 am 00:56 Cloudy with Mist and Fog 61 16 N/A N/A WSW 6 9 29.78 1008 3 5 0.00 0.00
1:05 am 01:05 Cloudy with Haze 61 16 N/A N/A W 7 11 29.78 1008 4 6 0.00 0.00
1:41 am 01:41 Cloudy with Mist and Fog 61 16 N/A N/A W 8 13 29.78 1008 3 5 0.00 0.00
1:56 am 01:56 Cloudy with Haze 61 16 N/A N/A W 7 11 29.77 1008 4 6 0.00 0.00
2:19 am 02:19 Partly Cloudy with Mist and Fog 59 15 N/A N/A WSW 6 9 29.77 1008 3 4 0.00 0.00
2:45 am 02:45 Mostly Cloudy with Mist and Fog 59 15 N/A N/A SW 7 11 29.75 1007 3 5 0.00 0.00
2:56 am 02:56 Cloudy with Haze 59 15 N/A N/A WSW 7 11 29.76 1008 4 6 0.00 0.00
3:56 am 03:56 Mostly Cloudy with Haze 59 15 N/A N/A WSW 8 13 29.76 1008 4 6 0.00 0.00
4:03 am 04:03 Mostly Cloudy with Haze 59 15 N/A N/A WSW 8 13 29.76 1008 4 6 0.00 0.00
4:32 am 04:32 Mostly Cloudy with Haze 59 15 N/A N/A WSW 8 13 29.75 1007 5 8 0.00 0.00
4:56 am 04:56 Mostly Cloudy with Mist and Fog 57 14 N/A N/A WSW 7 11 29.76 1008 3 5 0.00 0.00
5:10 am 05:10 Mostly Cloudy with Mist and Fog 57 14 N/A N/A WSW 6 9 29.77 1008 3 5 0.00 0.00
5:25 am 05:25 Mostly Clear with Mist and Fog 57 14 N/A N/A WSW 6 9 29.77 1008 3 4 0.00 0.00
5:45 am 05:45 Mostly Cloudy with Mist and Fog 57 14 N/A N/A WSW 6 9 29.78 1008 3 5 0.00 0.00
5:56 am 05:56 Mostly Cloudy with Mist and Fog 57 14 N/A N/A WSW 6 9 29.78 1009 3 5 0.00 0.00
6:24 am 06:24 Cloudy with Haze 59 15 N/A N/A WSW 7 11 29.78 1009 4 6 0.00 0.00
6:36 am 06:36 Mostly Cloudy with Haze 59 15 N/A N/A W 8 13 29.79 1009 4 6 0.00 0.00
6:56 am 06:56 Cloudy with Haze 61 16 N/A N/A WSW 8 13 29.80 1009 4 6 0.00 0.00
7:15 am 07:15 Cloudy with Mist and Fog 61 16 N/A N/A WSW 7 11 29.80 1009 2 3 0.00 0.00
7:24 am 07:24 Cloudy with Mist and Fog 61 16 N/A N/A W 9 15 29.81 1009 2 2 0.00 0.00
7:53 am 07:53 Cloudy with Mist and Fog 61 16 N/A N/A WSW 8 13 29.80 1009 1 1 0.00 0.00
7:56 am 07:56 Cloudy with Mist and Fog 61 16 N/A N/A WSW 9 15 29.81 1010 1 1 0.00 0.00
8:19 am 08:19 Cloudy with Mist and Fog 61 16 N/A N/A W 7 11 29.81 1009 1 2 0.00 0.00
8:47 am 08:47 Cloudy with Mist and Fog 61 16 N/A N/A WSW 6 9 29.81 1009 3 4 0.00 0.00
8:56 am 08:56 Cloudy with Mist and Fog 63 17 N/A N/A W 8 13 29.80 1009 3 4 0.00 0.00
9:20 am 09:20 Cloudy with Mist and Fog 63 17 N/A N/A WNW 7 11 29.81 1010 3 5 0.00 0.00
9:41 am 09:41 Cloudy with Haze 63 17 N/A N/A WSW 9 15 29.81 1010 4 6 0.00 0.00
9:56 am 09:56 Cloudy with Haze 64 18 N/A N/A WSW 10 17 29.82 1010 4 6 0.00 0.00
10:56 am 10:56 Cloudy 67 19.4 67 19.4 100 100 WSW 9 15 29.80 1009 7 11 0.00 0.00
11:52 am 11:52 Cloudy 70 21 66 19 88 88 WSW 9 15 29.81 1009 10 16 0.00 0.00
11:56 am 11:56 Mostly Cloudy 70 21.1 67 19.4 90 90 WSW 12 19 29.81 1009 10 16 0.00 0.00
12:56 pm 12:56 Mostly Cloudy 71 21.7 66 18.9 84 84 WSW 9 15 29.81 1009 10 16 0.00 0.00
1:56 pm 13:56 Cloudy 71 21.7 68 20 90 90 SW 15 24 29.79 1009 9 14 0.00 0.00
2:56 pm 14:56 Mostly Cloudy 72 22.2 66 18.9 82 82 SW 9 15 29.80 1009 7 11 0.00 0.00
3:56 pm 15:56 Partly Cloudy 74 23.3 66 18.9 76 76 VRB 7 11 29.75 1008 8 13 0.00 0.00
4:56 pm 16:56 Sunny 75 23.9 66 18.9 74 74 SSW 9 15 29.74 1007 9 14 0.00 0.00
5:56 pm 17:56 Mostly Sunny 77 25 65 18.3 66 66 SSW 7 11 29.73 1007 10 16 0.00 0.00
6:56 pm 18:56 Sunny 77 25 65 18.3 66 66 S 5 7 29.73 1007 10 16 0.00 0.00
7:56 pm 19:56 Sunny 74 23.3 67 19.4 79 79 ESE 3 6 29.71 1006 10 16 0.00 0.00
8:56 pm 20:56 Mostly Cloudy 73 22.8 66 18.9 79 79 SSE 8 13 29.70 1006 10 16 0.00 0.00
9:56 pm 21:56 Mostly Cloudy 73 22.8 67 19.4 81 81 SSE 16 26 29.67 1005 10 16 0.00 0.00
10:56 pm 22:56 Mostly Cloudy with Light Rain 69 20.6 69 20.6 100 100 S 13 20 29.70 1006 10 16 0.00 0.00
11:56 pm 23:56 Mostly Clear 67 19.4 65 18.3 93 93 S 12 19 29.67 1005 10 16 0.00 0.00

Powered by AerisWeather